This is the latest recevied weather packets stored in our database for station/object KC9NPJ-13. If no packets are shown the sender has not sent any weather packets the latest 1 day(s).
| Time | Temp. | Humidity | Pressure | Rain* | Wind** | Luminosity | Snow |
|---|---|---|---|---|---|---|---|
| 1778018339 | 10° C | 93% | 1009.5 hPa | 0 mm | 0.89 m/s, 25° | - | - |
| 1778018040 | 10° C | 93% | 1009.6 hPa | 0 mm | 0.89 m/s, 96° | - | - |
| 1778017740 | 10° C | 93% | 1009.6 hPa | 0.25 mm | 0.89 m/s, 356° | - | - |
| 1778017439 | 10° C | 93% | 1009.5 hPa | 0.25 mm | 0.45 m/s, 342° | - | - |
| 1778017140 | 10° C | 93% | 1009.4 hPa | 0.25 mm | 0.45 m/s, 358° | - | - |
| 1778016840 | 10° C | 94% | 1009.4 hPa | 0.25 mm | 0.45 m/s, 342° | - | - |
| 1778016540 | 10° C | 93% | 1009.3 hPa | 0.25 mm | 0.89 m/s, 184° | - | - |
| 1778016240 | 10° C | 93% | 1009.3 hPa | 0.51 mm | 1.34 m/s, 333° | - | - |
| 1778015940 | 10.56° C | 93% | 1009.4 hPa | 0.51 mm | 0.89 m/s, 352° | - | - |
| 1778015640 | 10.56° C | 94% | 1009.4 hPa | 1.02 mm | 0.45 m/s, 306° | - | - |
| 1778015340 | 10.56° C | 94% | 1009.3 hPa | 1.02 mm | 0.45 m/s, 31° | - | - |
| 1778015040 | 10.56° C | 94% | 1009.2 hPa | 1.02 mm | 0.89 m/s, 340° | - | - |
| 1778014740 | 10.56° C | 94% | 1009.3 hPa | 1.27 mm | 0.89 m/s, 123° | - | - |
| 1778014440 | 10.56° C | 94% | 1009.3 hPa | 1.27 mm | 0.89 m/s, 358° | - | - |
| 1778014140 | 10.56° C | 94% | 1009.4 hPa | 1.02 mm | 0.45 m/s, 76° | - | - |
| 1778013840 | 10.56° C | 94% | 1009.5 hPa | 1.27 mm | 0.45 m/s, 338° | - | - |
| 1778013540 | 10.56° C | 93% | 1009.4 hPa | 1.27 mm | 0.89 m/s, 350° | - | - |
| 1778013240 | 10.56° C | 93% | 1009.4 hPa | 1.27 mm | 0.89 m/s, 78° | - | - |
| 1778012940 | 10.56° C | 93% | 1009 hPa | 1.27 mm | 2.24 m/s, 156° | - | - |
| 1778012640 | 10.56° C | 93% | 1009.5 hPa | 1.27 mm | 3.13 m/s, 38° | - | - |
| 1778012340 | 10.56° C | 92% | 1009.5 hPa | 1.27 mm | 2.68 m/s, 3° | - | - |
| 1778012040 | 11.11° C | 93% | 1009.3 hPa | 0.76 mm | 2.68 m/s, 15° | - | - |
| 1778011740 | 11.11° C | 93% | 1009.4 hPa | 0.76 mm | 3.13 m/s, 353° | - | - |
| 1778011440 | 11.67° C | 94% | 1009.2 hPa | 0.76 mm | 3.13 m/s, 356° | - | - |
| 1778011140 | 11.67° C | 94% | 1009.4 hPa | 0.51 mm | 2.68 m/s, 7° | - | - |
* Rain latest hour (hover to see other rain measurements)
** Current wind speed in m/s (hover to see current wind gust speed)